Change the Weather History Date:

Saturday, March 31, 2012

  Actual Average Record
Temperature  
Mean Temperature 54 °F 43 °F  
Max Temperature 62 °F 54 °F 72 °F (2014)
Min Temperature 46 °F 32 °F 19 °F (1997)
Degree Days  
Heating Degree Days 11 22  
Month to date heating degree days 429 894  
Since 1 July heating degree days 5045 6301  
Cooling Degree Days 0 0  
Month to date cooling degree days 18 0  
Year to date cooling degree days 18 0  
Growing Degree Days 4 (Base 50)    
Moisture  
Dew Point 48 °F    
Average Humidity 83    
Maximum Humidity 93    
Minimum Humidity 72    
Precipitation  
Precipitation T in 0.10 in 0.55 in (2007)
Month to date precipitation 1.36 2.00  
Year to date precipitation 2.19  
Sea Level Pressure  
Sea Level Pressure 29.79 in    
Wind  
Wind Speed 13 mph (ESE)    
Max Wind Speed 20 mph    
Max Gust Speed 23 mph    
Visibility 5 miles    
Events Thunderstorm    
T = Trace of Precipitation, MM = Missing Value Source: NWS Daily Summary

Daily Weather History Graph

Daily Weather History Graph

Search for Another Location

Airport or City:

Trip Planner

Search our weather history database for the weather conditions in past years. The results will help you decide how hot, cold, wet, or windy it might be!

Date:

Astronomy

Mar. 31, 2012 Rise Set
Actual Time 6:55 AM CDT 7:36 PM CDT
Civil Twilight 6:26 AM CDT 8:05 PM CDT
Nautical Twilight 5:53 AM CDT 8:38 PM CDT
Astronomical Twilight 5:19 AM CDT 9:13 PM CDT
Moon 12:58 PM CDT (3/31) 2:58 AM CDT (3/31)
Length of Visible Light 13h 38m
Length of Day
12h 41m
First Quarter, 59% of the Moon is Illuminated
Mar 31
First Quarter
Apr 6
Full
Apr 13
Last Quarter
Apr 21
New
Apr 29
First Quarter

Hourly Weather History & Observations

Time (CDT) Temp. Windchill Dew Point Humidity Pressure Visibility Wind Dir Wind Speed Gust Speed Precip Events Conditions
12:53 AM 46.9 °F - 44.1 °F 90% 29.86 in 5.0 mi East 12.7 mph - N/A   Clear
1:53 AM 46.9 °F - 44.1 °F 90% 29.86 in 5.0 mi East 13.8 mph - N/A   Mostly Cloudy
2:44 AM 46.4 °F 41.5 °F 44.6 °F 93% 29.85 in 6.0 mi ESE 10.4 mph - 0.00 in   Overcast
2:53 AM 46.9 °F - 45.0 °F 93% 29.87 in 5.0 mi ESE 10.4 mph - 0.00 in   Overcast
3:53 AM 46.9 °F - 45.0 °F 93% 29.86 in 4.0 mi ESE 10.4 mph - N/A   Overcast
4:53 AM 46.9 °F - 45.0 °F 93% 29.86 in 4.0 mi ESE 15.0 mph - N/A   Overcast
5:53 AM 46.9 °F - 44.1 °F 90% 29.86 in 5.0 mi ESE 17.3 mph - N/A   Overcast
6:53 AM 46.9 °F - 44.1 °F 90% 29.87 in 5.0 mi SE 16.1 mph - N/A   Overcast
7:53 AM 46.9 °F - 44.1 °F 90% 29.88 in 4.0 mi SE 15.0 mph - N/A   Overcast
8:53 AM 46.9 °F - 45.0 °F 93% 29.88 in 2.5 mi SE 16.1 mph - N/A   Overcast
9:51 AM 48.2 °F - 44.6 °F 87% 29.87 in 3.0 mi SE 15.0 mph - N/A   Overcast
9:53 AM 48.0 °F - 45.0 °F 89% 29.88 in 3.0 mi SE 12.7 mph - N/A   Overcast
10:53 AM 48.9 °F - 46.0 °F 90% 29.88 in 3.0 mi SE 12.7 mph - N/A   Overcast
11:53 AM 48.9 °F - 46.0 °F 90% 29.86 in 3.0 mi SE 17.3 mph - N/A   Overcast
12:53 PM 50.0 °F - 46.9 °F 89% 29.84 in 3.0 mi SE 15.0 mph - N/A   Overcast
1:53 PM 51.1 °F - 46.9 °F 86% 29.82 in 4.0 mi SE 13.8 mph - N/A   Overcast
2:53 PM 53.1 °F - 48.0 °F 83% 29.79 in 4.0 mi ESE 13.8 mph - N/A   Haze
3:15 PM 53.6 °F - 48.2 °F 82% 29.77 in 4.0 mi SE 13.8 mph - N/A   Haze
3:53 PM 55.9 °F - 50.0 °F 80% 29.77 in 5.0 mi SE 13.8 mph - N/A   Haze
4:38 PM 57.2 °F - 51.8 °F 82% 29.74 in 5.0 mi SE 10.4 mph - N/A   Haze
4:53 PM 59.0 °F - 52.0 °F 78% 29.74 in 5.0 mi SE 11.5 mph - N/A   Haze
5:53 PM 62.1 °F - 54.0 °F 75% 29.73 in 6.0 mi SSE 11.5 mph - N/A   Haze
6:53 PM 62.1 °F - 55.0 °F 78% 29.70 in 6.0 mi ESE 11.5 mph - N/A   Haze
7:53 PM 57.9 °F - 54.0 °F 87% 29.68 in 6.0 mi ESE 12.7 mph - N/A   Partly Cloudy
8:05 PM 59.0 °F - 53.6 °F 82% 29.70 in 6.0 mi ENE 9.2 mph - N/A Thunderstorm Unknown
8:22 PM 59.0 °F - 53.6 °F 82% 29.70 in 6.0 mi East 10.4 mph - N/A Thunderstorm Haze
8:43 PM 57.2 °F - 53.6 °F 88% 29.69 in 6.0 mi East 12.7 mph - N/A   Haze
8:53 PM 57.0 °F - 53.1 °F 87% 29.70 in 6.0 mi ESE 11.5 mph - N/A   Mostly Cloudy
9:53 PM 55.0 °F - 48.9 °F 80% 29.69 in 7.0 mi East 15.0 mph - N/A   Partly Cloudy
10:53 PM 53.1 °F - 48.9 °F 86% 29.67 in 6.0 mi East 16.1 mph - N/A   Clear
11:53 PM 50.0 °F - 48.0 °F 93% 29.66 in 6.0 mi East 11.5 mph - N/A   Clear